Time,TemperatureF,DewpointF,PressureIn,WindDirection,WindDirectionDegrees,WindSpeedMPH,WindSpeedGustMPH,Humidity,HourlyPrecipIn,Conditions,Clouds,dailyrainin,SoftwareType,DateUTC
2013-08-29 00:03:00,75.1,71.6,29.99,WSW,252,0.0,1.0,89,0.00,,,0.00,Wunderground v.1.15,2013-08-29 05:03:00,
2013-08-29 00:08:00,75.1,71.6,29.99,WSW,250,0.0,1.0,89,0.00,,,0.00,Wunderground v.1.15,2013-08-29 05:08:00,
2013-08-29 00:14:00,75.1,71.6,29.99,WSW,249,1.0,2.0,89,0.00,,,0.00,Wunderground v.1.15,2013-08-29 05:14:00,
2013-08-29 00:20:00,75.0,71.5,29.99,WSW,252,0.0,1.0,89,0.00,,,0.00,Wunderground v.1.15,2013-08-29 05:20:00,
2013-08-29 00:26:00,75.0,71.5,29.99,WSW,257,1.0,1.0,89,0.00,,,0.00,Wunderground v.1.15,2013-08-29 05:26:00,
2013-08-29 00:32:00,75.0,71.5,29.99,West,264,1.0,2.0,89,0.00,,,0.00,Wunderground v.1.15,2013-08-29 05:32:00,
2013-08-29 00:38:00,75.0,71.5,29.99,West,262,0.0,2.0,89,0.00,,,0.00,Wunderground v.1.15,2013-08-29 05:38:00,
2013-08-29 00:44:00,74.9,71.4,29.99,West,262,0.0,1.0,89,0.00,,,0.00,Wunderground v.1.15,2013-08-29 05:44:00,
2013-08-29 00:50:00,74.6,71.5,29.99,West,262,0.0,0.0,90,0.00,,,0.00,Wunderground v.1.15,2013-08-29 05:50:00,
2013-08-29 00:56:00,74.6,71.5,29.99,WSW,257,1.0,1.0,90,0.00,,,0.00,Wunderground v.1.15,2013-08-29 05:56:00,
2013-08-29 01:01:00,74.6,71.5,29.99,West,260,0.0,1.0,90,0.00,,,0.00,Wunderground v.1.15,2013-08-29 06:01:00,
2013-08-29 01:07:00,74.6,71.5,29.99,West,263,1.0,2.0,90,0.00,,,0.00,Wunderground v.1.15,2013-08-29 06:07:00,
2013-08-29 01:13:00,74.5,71.4,29.99,WSW,257,1.0,2.0,90,0.00,,,0.00,Wunderground v.1.15,2013-08-29 06:13:00,
2013-08-29 01:19:00,74.4,71.3,29.99,WSW,243,1.0,2.0,90,0.00,,,0.00,Wunderground v.1.15,2013-08-29 06:19:00,
2013-08-29 01:25:00,74.2,71.1,29.99,WSW,252,1.0,2.0,90,0.00,,,0.00,Wunderground v.1.15,2013-08-29 06:25:00,
2013-08-29 01:30:00,74.1,71.0,29.99,WSW,246,1.0,1.0,90,0.00,,,0.00,Wunderground v.1.15,2013-08-29 06:30:00,
2013-08-29 01:36:00,74.1,71.3,29.99,WSW,252,1.0,2.0,91,0.00,,,0.00,Wunderground v.1.15,2013-08-29 06:36:00,
2013-08-29 01:42:00,74.1,71.3,29.99,WSW,247,1.0,1.0,91,0.00,,,0.00,Wunderground v.1.15,2013-08-29 06:42:00,
2013-08-29 01:48:00,74.1,71.3,29.99,WSW,249,1.0,1.0,91,0.00,,,0.00,Wunderground v.1.15,2013-08-29 06:48:00,
2013-08-29 01:53:00,74.0,71.2,29.98,WSW,242,1.0,1.0,91,0.00,,,0.00,Wunderground v.1.15,2013-08-29 06:53:00,
2013-08-29 01:59:00,73.9,71.1,29.98,West,264,1.0,2.0,91,0.00,,,0.00,Wunderground v.1.15,2013-08-29 06:59:00,
2013-08-29 02:04:00,73.9,71.1,29.98,WSW,253,0.0,1.0,91,0.00,,,0.00,Wunderground v.1.15,2013-08-29 07:04:00,
2013-08-29 02:09:00,73.7,70.9,29.98,WSW,252,0.0,1.0,91,0.00,,,0.00,Wunderground v.1.15,2013-08-29 07:09:00,
2013-08-29 02:14:00,73.7,70.9,29.99,WSW,252,0.0,1.0,91,0.00,,,0.00,Wunderground v.1.15,2013-08-29 07:14:00,
2013-08-29 02:19:00,73.6,70.8,29.98,WSW,252,0.0,1.0,91,0.00,,,0.00,Wunderground v.1.15,2013-08-29 07:19:00,
2013-08-29 02:24:00,73.5,70.7,29.98,WSW,252,1.0,1.0,91,0.00,,,0.00,Wunderground v.1.15,2013-08-29 07:24:00,
2013-08-29 02:29:00,73.6,70.8,29.99,West,259,1.0,2.0,91,0.00,,,0.00,Wunderground v.1.15,2013-08-29 07:29:00,
2013-08-29 02:34:00,73.6,70.8,29.99,West,259,0.0,1.0,91,0.00,,,0.00,Wunderground v.1.15,2013-08-29 07:34:00,
2013-08-29 02:39:00,73.6,70.8,29.99,WSW,258,0.0,1.0,91,0.00,,,0.00,Wunderground v.1.15,2013-08-29 07:39:00,
2013-08-29 02:44:00,73.4,70.6,29.99,West,259,0.0,0.0,91,0.00,,,0.00,Wunderground v.1.15,2013-08-29 07:44:00,
2013-08-29 02:49:00,73.3,70.5,29.99,West,259,0.0,1.0,91,0.00,,,0.00,Wunderground v.1.15,2013-08-29 07:49:00,
2013-08-29 02:54:00,73.2,70.7,29.99,WSW,256,0.0,1.0,92,0.00,,,0.00,Wunderground v.1.15,2013-08-29 07:54:00,
2013-08-29 02:59:00,73.2,70.7,29.99,WSW,250,0.0,1.0,92,0.00,,,0.00,Wunderground v.1.15,2013-08-29 07:59:00,
2013-08-29 03:04:00,73.3,70.5,29.99,West,259,1.0,1.0,91,0.00,,,0.00,Wunderground v.1.15,2013-08-29 08:04:00,
2013-08-29 03:09:00,73.4,70.6,29.99,WSW,257,0.0,1.0,91,0.00,,,0.00,Wunderground v.1.15,2013-08-29 08:09:00,
2013-08-29 03:14:00,73.1,70.3,29.99,WSW,257,0.0,0.0,91,0.00,,,0.00,Wunderground v.1.15,2013-08-29 08:14:00,
2013-08-29 03:19:00,72.9,70.4,29.99,WSW,257,0.0,0.0,92,0.00,,,0.00,Wunderground v.1.15,2013-08-29 08:19:00,
2013-08-29 03:24:00,72.6,70.1,29.99,WSW,257,0.0,0.0,92,0.00,,,0.00,Wunderground v.1.15,2013-08-29 08:24:00,
2013-08-29 03:29:00,72.3,69.8,29.99,WSW,257,0.0,0.0,92,0.00,,,0.00,Wunderground v.1.15,2013-08-29 08:29:00,
2013-08-29 03:34:00,72.0,69.9,29.99,WSW,257,0.0,0.0,93,0.00,,,0.00,Wunderground v.1.15,2013-08-29 08:34:00,
2013-08-29 03:39:00,71.8,69.7,29.99,WSW,257,0.0,0.0,93,0.00,,,0.00,Wunderground v.1.15,2013-08-29 08:39:00,
2013-08-29 03:44:00,71.5,69.7,29.99,WSW,257,0.0,0.0,94,0.00,,,0.00,Wunderground v.1.15,2013-08-29 08:44:00,
2013-08-29 03:49:00,71.4,69.6,29.99,WSW,257,0.0,0.0,94,0.00,,,0.00,Wunderground v.1.15,2013-08-29 08:49:00,
2013-08-29 03:54:00,71.2,69.4,29.99,WSW,257,0.0,0.0,94,0.00,,,0.00,Wunderground v.1.15,2013-08-29 08:54:00,
2013-08-29 03:59:00,71.0,69.5,29.99,WSW,257,0.0,0.0,95,0.00,,,0.00,Wunderground v.1.15,2013-08-29 08:59:00,
2013-08-29 04:04:00,70.9,69.4,29.99,WSW,257,0.0,0.0,95,0.00,,,0.00,Wunderground v.1.15,2013-08-29 09:04:00,
2013-08-29 04:09:00,70.8,69.3,29.99,WSW,257,0.0,0.0,95,0.00,,,0.00,Wunderground v.1.15,2013-08-29 09:09:00,
2013-08-29 04:14:00,70.8,69.6,29.99,WSW,257,0.0,0.0,96,0.00,,,0.00,Wunderground v.1.15,2013-08-29 09:14:00,
2013-08-29 04:19:00,70.8,69.6,29.98,WSW,257,0.0,0.0,96,0.00,,,0.00,Wunderground v.1.15,2013-08-29 09:19:00,
2013-08-29 04:24:00,70.8,69.6,29.98,WSW,257,0.0,0.0,96,0.00,,,0.00,Wunderground v.1.15,2013-08-29 09:24:00,
2013-08-29 04:29:00,70.8,69.6,29.98,WSW,257,0.0,0.0,96,0.00,,,0.00,Wunderground v.1.15,2013-08-29 09:29:00,
2013-08-29 04:34:00,70.8,69.6,29.98,WSW,257,0.0,0.0,96,0.00,,,0.00,Wunderground v.1.15,2013-08-29 09:34:00,
2013-08-29 04:39:00,70.9,69.7,29.99,WSW,257,0.0,0.0,96,0.00,,,0.00,Wunderground v.1.15,2013-08-29 09:39:00,
2013-08-29 04:44:00,70.9,69.7,29.98,WSW,257,0.0,0.0,96,0.00,,,0.00,Wunderground v.1.15,2013-08-29 09:44:00,
2013-08-29 04:49:00,70.9,69.7,29.99,WSW,257,0.0,0.0,96,0.00,,,0.00,Wunderground v.1.15,2013-08-29 09:49:00,
2013-08-29 04:54:00,71.2,70.0,29.98,WSW,257,0.0,0.0,96,0.00,,,0.00,Wunderground v.1.15,2013-08-29 09:54:00,
2013-08-29 04:59:00,71.4,69.9,29.99,WSW,255,0.0,1.0,95,0.00,,,0.00,Wunderground v.1.15,2013-08-29 09:59:00,
2013-08-29 05:04:00,71.5,70.0,29.99,WSW,240,0.0,0.0,95,0.00,,,0.00,Wunderground v.1.15,2013-08-29 10:04:00,
2013-08-29 05:09:00,71.6,69.8,29.99,WSW,242,0.0,0.0,94,0.00,,,0.00,Wunderground v.1.15,2013-08-29 10:09:00,
2013-08-29 05:14:00,71.6,69.8,29.99,SW,236,0.0,0.0,94,0.00,,,0.00,Wunderground v.1.15,2013-08-29 10:14:00,
2013-08-29 05:19:00,71.5,69.7,29.99,WSW,251,0.0,0.0,94,0.00,,,0.00,Wunderground v.1.15,2013-08-29 10:19:00,
2013-08-29 05:24:00,71.5,69.7,29.99,SW,229,0.0,0.0,94,0.00,,,0.00,Wunderground v.1.15,2013-08-29 10:24:00,
2013-08-29 05:29:00,71.5,69.7,29.99,WSW,243,0.0,0.0,94,0.00,,,0.00,Wunderground v.1.15,2013-08-29 10:29:00,
2013-08-29 05:34:00,71.5,69.7,29.99,WSW,258,0.0,0.0,94,0.00,,,0.00,Wunderground v.1.15,2013-08-29 10:34:00,
2013-08-29 05:39:00,71.8,70.0,29.99,WSW,255,0.0,0.0,94,0.00,,,0.00,Wunderground v.1.15,2013-08-29 10:39:00,
2013-08-29 05:44:00,71.9,69.8,29.99,WSW,257,0.0,0.0,93,0.00,,,0.00,Wunderground v.1.15,2013-08-29 10:44:00,
2013-08-29 05:49:00,72.0,69.9,29.99,West,262,0.0,0.0,93,0.00,,,0.00,Wunderground v.1.15,2013-08-29 10:49:00,
2013-08-29 05:54:00,72.1,70.0,29.99,WSW,257,0.0,0.0,93,0.00,,,0.00,Wunderground v.1.15,2013-08-29 10:54:00,
2013-08-29 05:59:00,72.2,69.7,29.99,West,273,0.0,0.0,92,0.00,,,0.00,Wunderground v.1.15,2013-08-29 10:59:00,
2013-08-29 06:04:00,72.2,69.7,29.99,West,270,0.0,0.0,92,0.00,,,0.00,Wunderground v.1.15,2013-08-29 11:04:00,
2013-08-29 06:10:00,72.1,69.6,30.00,West,270,0.0,0.0,92,0.00,,,0.00,Wunderground v.1.15,2013-08-29 11:10:00,
2013-08-29 06:15:00,72.0,69.5,30.00,West,270,0.0,0.0,92,0.00,,,0.00,Wunderground v.1.15,2013-08-29 11:15:00,
2013-08-29 06:19:00,71.7,69.6,30.00,West,270,0.0,0.0,93,0.00,,,0.00,Wunderground v.1.15,2013-08-29 11:19:00,
2013-08-29 06:25:00,71.4,69.3,30.00,West,270,0.0,0.0,93,0.00,,,0.00,Wunderground v.1.15,2013-08-29 11:25:00,
2013-08-29 06:30:00,71.1,69.3,30.01,West,270,0.0,0.0,94,0.00,,,0.00,Wunderground v.1.15,2013-08-29 11:30:00,
2013-08-29 06:35:00,71.0,69.2,30.01,West,270,0.0,0.0,94,0.00,,,0.00,Wunderground v.1.15,2013-08-29 11:35:00,
2013-08-29 06:40:00,70.9,69.1,30.01,West,271,0.0,0.0,94,0.00,,,0.00,Wunderground v.1.15,2013-08-29 11:40:00,
2013-08-29 06:45:00,70.8,69.3,30.01,West,270,0.0,0.0,95,0.00,,,0.00,Wunderground v.1.15,2013-08-29 11:45:00,
2013-08-29 06:50:00,71.0,69.5,30.01,West,270,0.0,0.0,95,0.00,,,0.00,Wunderground v.1.15,2013-08-29 11:50:00,
2013-08-29 06:55:00,71.2,69.4,30.01,West,270,0.0,0.0,94,0.00,,,0.00,Wunderground v.1.15,2013-08-29 11:55:00,
2013-08-29 07:00:00,71.6,69.8,30.01,West,259,0.0,0.0,94,0.00,,,0.00,Wunderground v.1.15,2013-08-29 12:00:00,
2013-08-29 07:05:00,71.9,69.8,30.01,WSW,249,0.0,0.0,93,0.00,,,0.00,Wunderground v.1.15,2013-08-29 12:05:00,
2013-08-29 07:10:00,72.3,70.2,30.01,WSW,253,0.0,0.0,93,0.00,,,0.00,Wunderground v.1.15,2013-08-29 12:10:00,
2013-08-29 07:15:00,72.6,70.1,30.01,WSW,249,0.0,0.0,92,0.00,,,0.00,Wunderground v.1.15,2013-08-29 12:15:00,
2013-08-29 07:20:00,72.9,70.4,30.01,WSW,249,0.0,0.0,92,0.00,,,0.00,Wunderground v.1.15,2013-08-29 12:20:00,
2013-08-29 07:25:00,73.3,70.5,30.02,West,264,0.0,0.0,91,0.00,,,0.00,Wunderground v.1.15,2013-08-29 12:25:00,
2013-08-29 07:30:00,73.6,70.8,30.02,West,269,0.0,0.0,91,0.00,,,0.00,Wunderground v.1.15,2013-08-29 12:30:00,
2013-08-29 07:35:00,74.0,70.9,30.02,WNW,290,0.0,0.0,90,0.00,,,0.00,Wunderground v.1.15,2013-08-29 12:35:00,
2013-08-29 07:40:00,74.4,71.3,30.01,WNW,300,1.0,1.0,90,0.00,,,0.00,Wunderground v.1.15,2013-08-29 12:40:00,
2013-08-29 07:45:00,74.8,71.3,30.01,WNW,298,3.0,4.0,89,0.00,,,0.00,Wunderground v.1.15,2013-08-29 12:45:00,
2013-08-29 07:50:00,75.0,71.2,30.01,NW,310,3.0,3.0,88,0.00,,,0.00,Wunderground v.1.15,2013-08-29 12:50:00,
2013-08-29 07:55:00,75.3,71.5,30.01,NW,310,2.0,4.0,88,0.00,,,0.00,Wunderground v.1.15,2013-08-29 12:55:00,
2013-08-29 08:00:00,75.5,71.7,30.01,West,274,3.0,3.0,88,0.00,,,0.00,Wunderground v.1.15,2013-08-29 13:00:00,
2013-08-29 08:05:00,75.7,71.6,30.01,NW,304,3.0,5.0,87,0.00,,,0.00,Wunderground v.1.15,2013-08-29 13:05:00,
2013-08-29 08:10:00,76.0,72.2,30.02,WNW,297,1.0,2.0,88,0.00,,,0.00,Wunderground v.1.15,2013-08-29 13:10:00,
2013-08-29 08:15:00,76.4,72.2,30.02,WNW,301,2.0,3.0,87,0.00,,,0.00,Wunderground v.1.15,2013-08-29 13:15:00,
2013-08-29 08:20:00,76.8,72.6,30.01,West,274,2.0,2.0,87,0.00,,,0.00,Wunderground v.1.15,2013-08-29 13:20:00,
2013-08-29 08:25:00,77.3,72.8,30.01,WNW,294,2.0,4.0,86,0.00,,,0.00,Wunderground v.1.15,2013-08-29 13:25:00,
2013-08-29 08:30:00,77.7,73.2,30.02,WNW,292,2.0,2.0,86,0.00,,,0.00,Wunderground v.1.15,2013-08-29 13:30:00,
2013-08-29 08:35:00,78.1,73.2,30.02,WNW,297,3.0,4.0,85,0.00,,,0.00,Wunderground v.1.15,2013-08-29 13:35:00,
2013-08-29 08:40:00,78.5,74.0,30.02,NW,311,2.0,2.0,86,0.00,,,0.00,Wunderground v.1.15,2013-08-29 13:40:00,
2013-08-29 08:45:00,78.8,73.9,30.02,West,280,2.0,4.0,85,0.00,,,0.00,Wunderground v.1.15,2013-08-29 13:45:00,
2013-08-29 08:50:00,79.3,73.7,30.02,NW,318,2.0,3.0,83,0.00,,,0.00,Wunderground v.1.15,2013-08-29 13:50:00,
2013-08-29 08:55:00,79.7,74.1,30.02,WNW,301,2.0,5.0,83,0.00,,,0.00,Wunderground v.1.15,2013-08-29 13:55:00,
2013-08-29 09:00:00,80.0,73.6,30.02,WSW,246,2.0,4.0,81,0.00,,,0.00,Wunderground v.1.15,2013-08-29 14:00:00,
2013-08-29 09:05:00,80.6,74.2,30.02,WNW,288,3.0,4.0,81,0.00,,,0.00,Wunderground v.1.15,2013-08-29 14:05:00,
2013-08-29 09:10:00,80.9,73.8,30.02,WNW,283,2.0,3.0,79,0.00,,,0.00,Wunderground v.1.15,2013-08-29 14:10:00,
2013-08-29 09:15:00,81.2,74.4,30.02,WNW,291,3.0,4.0,80,0.00,,,0.00,Wunderground v.1.15,2013-08-29 14:15:00,
2013-08-29 09:20:00,81.5,75.1,30.02,WNW,293,3.0,3.0,81,0.00,,,0.00,Wunderground v.1.15,2013-08-29 14:20:00,
2013-08-29 09:25:00,81.8,74.6,30.02,NNW,328,0.0,5.0,79,0.00,,,0.00,Wunderground v.1.15,2013-08-29 14:25:00,
2013-08-29 09:30:00,82.3,74.0,30.02,NNE,15,2.0,4.0,76,0.00,,,0.00,Wunderground v.1.15,2013-08-29 14:30:00,
2013-08-29 09:35:00,82.4,74.1,30.02,WNW,301,3.0,5.0,76,0.00,,,0.00,Wunderground v.1.15,2013-08-29 14:35:00,
2013-08-29 09:40:00,82.8,74.5,30.02,NW,314,1.0,2.0,76,0.00,,,0.00,Wunderground v.1.15,2013-08-29 14:40:00,
2013-08-29 09:45:00,83.3,75.3,30.02,NW,320,2.0,3.0,77,0.00,,,0.00,Wunderground v.1.15,2013-08-29 14:45:00,
2013-08-29 09:50:00,83.5,74.7,30.02,NW,308,2.0,3.0,75,0.00,,,0.00,Wunderground v.1.15,2013-08-29 14:50:00,
2013-08-29 09:55:00,83.8,74.6,30.02,WNW,283,2.0,5.0,74,0.00,,,0.00,Wunderground v.1.15,2013-08-29 14:55:00,
2013-08-29 10:00:00,84.2,75.0,30.02,WNW,285,2.0,3.0,74,0.00,,,0.00,Wunderground v.1.15,2013-08-29 15:00:00,
2013-08-29 10:05:00,84.6,75.8,30.02,NW,323,2.0,3.0,75,0.00,,,0.00,Wunderground v.1.15,2013-08-29 15:05:00,
2013-08-29 10:10:00,85.2,75.6,30.02,NE,51,1.0,3.0,73,0.00,,,0.00,Wunderground v.1.15,2013-08-29 15:10:00,
2013-08-29 10:16:00,85.6,73.4,30.02,NE,46,3.0,5.0,67,0.00,,,0.00,Wunderground v.1.15,2013-08-29 15:16:00,
2013-08-29 10:21:00,86.1,74.7,30.02,NE,40,1.0,2.0,69,0.00,,,0.00,Wunderground v.1.15,2013-08-29 15:21:00,
2013-08-29 10:26:00,86.3,74.9,30.02,WNW,291,0.0,3.0,69,0.00,,,0.00,Wunderground v.1.15,2013-08-29 15:26:00,
2013-08-29 10:31:00,86.7,74.4,30.01,NW,314,1.0,2.0,67,0.00,,,0.00,Wunderground v.1.15,2013-08-29 15:31:00,
2013-08-29 10:36:00,87.0,74.3,30.01,NE,53,1.0,4.0,66,0.00,,,0.00,Wunderground v.1.15,2013-08-29 15:36:00,
2013-08-29 10:41:00,87.3,74.1,30.01,NW,323,1.0,5.0,65,0.00,,,0.00,Wunderground v.1.15,2013-08-29 15:41:00,
2013-08-29 10:46:00,87.5,75.2,30.01,NNW,343,0.0,5.0,67,0.00,,,0.00,Wunderground v.1.15,2013-08-29 15:46:00,
2013-08-29 10:51:00,87.9,75.1,30.01,NNE,20,1.0,4.0,66,0.00,,,0.00,Wunderground v.1.15,2013-08-29 15:51:00,
2013-08-29 10:56:00,88.3,72.7,30.01,NNE,33,0.0,4.0,60,0.00,,,0.00,Wunderground v.1.15,2013-08-29 15:56:00,
2013-08-29 11:01:00,88.5,74.3,30.01,NNW,330,2.0,3.0,63,0.00,,,0.00,Wunderground v.1.15,2013-08-29 16:01:00,
2013-08-29 11:06:00,88.6,73.9,30.01,NE,44,1.0,5.0,62,0.00,,,0.00,Wunderground v.1.15,2013-08-29 16:06:00,
2013-08-29 11:11:00,88.8,73.6,30.01,NNE,27,1.0,4.0,61,0.00,,,0.00,Wunderground v.1.15,2013-08-29 16:11:00,
2013-08-29 11:16:00,89.1,73.9,30.01,East,81,1.0,5.0,61,0.00,,,0.00,Wunderground v.1.15,2013-08-29 16:16:00,
2013-08-29 11:21:00,89.1,74.9,30.01,NE,46,3.0,3.0,63,0.00,,,0.00,Wunderground v.1.15,2013-08-29 16:21:00,
2013-08-29 11:26:00,89.2,75.4,30.01,NNE,27,0.0,4.0,64,0.00,,,0.00,Wunderground v.1.15,2013-08-29 16:26:00,
2013-08-29 11:31:00,89.4,73.2,30.01,North,11,1.0,3.0,59,0.00,,,0.00,Wunderground v.1.15,2013-08-29 16:31:00,
2013-08-29 11:36:00,89.4,74.7,30.01,NE,36,4.0,4.0,62,0.00,,,0.00,Wunderground v.1.15,2013-08-29 16:36:00,
2013-08-29 11:41:00,89.5,73.8,30.01,ENE,65,2.0,5.0,60,0.00,,,0.00,Wunderground v.1.15,2013-08-29 16:41:00,
2013-08-29 11:46:00,89.9,73.1,30.01,NW,312,2.0,5.0,58,0.00,,,0.00,Wunderground v.1.15,2013-08-29 16:46:00,
2013-08-29 11:51:00,90.3,74.0,30.00,ENE,59,2.0,3.0,59,0.00,,,0.00,Wunderground v.1.15,2013-08-29 16:51:00,
2013-08-29 11:56:00,90.4,73.6,30.00,NNE,33,1.0,5.0,58,0.00,,,0.00,Wunderground v.1.15,2013-08-29 16:56:00,
2013-08-29 12:01:00,90.8,74.5,30.00,ENE,60,2.0,4.0,59,0.00,,,0.00,Wunderground v.1.15,2013-08-29 17:01:00,
2013-08-29 12:06:00,91.0,75.2,30.00,North,353,3.0,4.0,60,0.00,,,0.00,Wunderground v.1.15,2013-08-29 17:06:00,
2013-08-29 12:11:00,91.1,74.8,30.00,NE,46,5.0,5.0,59,0.00,,,0.00,Wunderground v.1.15,2013-08-29 17:11:00,
2013-08-29 12:16:00,91.1,74.8,30.00,NNE,23,4.0,5.0,59,0.00,,,0.00,Wunderground v.1.15,2013-08-29 17:16:00,
2013-08-29 12:21:00,91.3,73.9,30.00,ENE,57,3.0,3.0,57,0.00,,,0.00,Wunderground v.1.15,2013-08-29 17:21:00,
2013-08-29 12:26:00,91.5,74.1,30.00,ENE,60,1.0,6.0,57,0.00,,,0.00,Wunderground v.1.15,2013-08-29 17:26:00,
2013-08-29 12:32:00,91.6,73.7,30.00,NE,44,2.0,4.0,56,0.00,,,0.00,Wunderground v.1.15,2013-08-29 17:32:00,
2013-08-29 12:36:00,91.3,73.9,30.00,NE,47,4.0,6.0,57,0.00,,,0.00,Wunderground v.1.15,2013-08-29 17:36:00,
2013-08-29 12:41:00,91.7,74.8,30.00,NNE,23,5.0,5.0,58,0.00,,,0.00,Wunderground v.1.15,2013-08-29 17:41:00,
2013-08-29 12:47:00,91.7,72.7,30.00,NE,44,4.0,7.0,54,0.00,,,0.00,Wunderground v.1.15,2013-08-29 17:47:00,
2013-08-29 12:52:00,91.7,73.2,30.00,North,1,3.0,5.0,55,0.00,,,0.00,Wunderground v.1.15,2013-08-29 17:52:00,
2013-08-29 12:57:00,91.6,73.1,30.00,ENE,70,4.0,6.0,55,0.00,,,0.00,Wunderground v.1.15,2013-08-29 17:57:00,
2013-08-29 13:02:00,91.7,73.2,30.00,ENE,65,3.0,7.0,55,0.00,,,0.00,Wunderground v.1.15,2013-08-29 18:02:00,
2013-08-29 13:07:00,91.7,72.7,30.00,North,359,1.0,7.0,54,0.00,,,0.00,Wunderground v.1.15,2013-08-29 18:07:00,
2013-08-29 13:12:00,91.7,74.3,29.99,NE,51,5.0,6.0,57,0.00,,,0.00,Wunderground v.1.15,2013-08-29 18:12:00,
2013-08-29 13:17:00,92.0,74.1,29.99,NE,49,5.0,6.0,56,0.00,,,0.00,Wunderground v.1.15,2013-08-29 18:17:00,
2013-08-29 13:22:00,92.0,75.1,29.99,ENE,59,4.0,7.0,58,0.00,,,0.00,Wunderground v.1.15,2013-08-29 18:22:00,
2013-08-29 13:27:00,92.0,73.5,29.99,NE,38,2.0,7.0,55,0.00,,,0.00,Wunderground v.1.15,2013-08-29 18:27:00,
2013-08-29 13:32:00,92.1,73.1,29.99,NNW,347,2.0,8.0,54,0.00,,,0.00,Wunderground v.1.15,2013-08-29 18:32:00,
2013-08-29 13:37:00,92.2,74.2,29.99,NE,44,4.0,8.0,56,0.00,,,0.00,Wunderground v.1.15,2013-08-29 18:37:00,
2013-08-29 13:42:00,92.6,74.1,29.99,NNW,340,4.0,5.0,55,0.00,,,0.00,Wunderground v.1.15,2013-08-29 18:42:00,
2013-08-29 13:47:00,92.8,74.3,29.98,North,355,2.0,6.0,55,0.00,,,0.00,Wunderground v.1.15,2013-08-29 18:47:00,
2013-08-29 13:52:00,92.5,74.0,29.98,NNW,330,1.0,6.0,55,0.00,,,0.00,Wunderground v.1.15,2013-08-29 18:52:00,
2013-08-29 13:57:00,93.2,75.2,29.98,NW,325,5.0,7.0,56,0.00,,,0.00,Wunderground v.1.15,2013-08-29 18:57:00,
2013-08-29 14:02:00,93.2,74.1,29.98,ENE,60,3.0,3.0,54,0.00,,,0.00,Wunderground v.1.15,2013-08-29 19:02:00,
2013-08-29 14:07:00,93.4,74.3,29.98,NNE,26,4.0,5.0,54,0.00,,,0.00,Wunderground v.1.15,2013-08-29 19:07:00,
2013-08-29 14:12:00,93.1,73.4,29.98,NNE,15,3.0,6.0,53,0.00,,,0.00,Wunderground v.1.15,2013-08-29 19:12:00,
2013-08-29 14:17:00,93.1,74.5,29.98,NE,53,3.0,7.0,55,0.00,,,0.00,Wunderground v.1.15,2013-08-29 19:17:00,
2013-08-29 14:22:00,92.8,75.3,29.98,NE,40,3.0,5.0,57,0.00,,,0.00,Wunderground v.1.15,2013-08-29 19:22:00,
2013-08-29 14:27:00,93.1,74.0,29.98,NW,315,1.0,7.0,54,0.00,,,0.00,Wunderground v.1.15,2013-08-29 19:27:00,
2013-08-29 14:32:00,93.3,74.2,29.98,NNE,32,3.0,6.0,54,0.00,,,0.00,Wunderground v.1.15,2013-08-29 19:32:00,
2013-08-29 14:37:00,93.4,75.4,29.98,ENE,69,3.0,6.0,56,0.00,,,0.00,Wunderground v.1.15,2013-08-29 19:37:00,
2013-08-29 14:42:00,93.7,74.0,29.97,NNE,30,5.0,6.0,53,0.00,,,0.00,Wunderground v.1.15,2013-08-29 19:42:00,
2013-08-29 14:47:00,92.9,73.2,29.97,NE,42,2.0,6.0,53,0.00,,,0.00,Wunderground v.1.15,2013-08-29 19:47:00,
2013-08-29 14:52:00,92.8,73.7,29.97,ENE,73,2.0,5.0,54,0.00,,,0.00,Wunderground v.1.15,2013-08-29 19:52:00,
2013-08-29 14:57:00,93.2,73.0,29.97,WNW,300,2.0,6.0,52,0.00,,,0.00,Wunderground v.1.15,2013-08-29 19:57:00,
2013-08-29 15:02:00,93.8,75.2,29.97,NE,44,2.0,3.0,55,0.00,,,0.00,Wunderground v.1.15,2013-08-29 20:02:00,
2013-08-29 15:07:00,93.6,73.9,29.96,NE,44,2.0,5.0,53,0.00,,,0.00,Wunderground v.1.15,2013-08-29 20:07:00,
2013-08-29 15:12:00,93.4,74.3,29.96,NNW,328,1.0,3.0,54,0.00,,,0.00,Wunderground v.1.15,2013-08-29 20:12:00,
2013-08-29 15:17:00,93.1,74.5,29.96,NNE,18,1.0,4.0,55,0.00,,,0.00,Wunderground v.1.15,2013-08-29 20:17:00,
2013-08-29 15:22:00,93.2,75.2,29.96,NW,315,2.0,3.0,56,0.00,,,0.00,Wunderground v.1.15,2013-08-29 20:22:00,
2013-08-29 15:27:00,92.8,73.2,29.96,WNW,290,1.0,5.0,53,0.00,,,0.00,Wunderground v.1.15,2013-08-29 20:27:00,
2013-08-29 15:32:00,92.4,73.3,29.96,NE,34,1.0,3.0,54,0.00,,,0.00,Wunderground v.1.15,2013-08-29 20:32:00,
2013-08-29 15:37:00,92.7,73.6,29.96,NNE,27,1.0,3.0,54,0.00,,,0.00,Wunderground v.1.15,2013-08-29 20:37:00,
2013-08-29 15:42:00,93.5,73.8,29.95,ENE,58,1.0,3.0,53,0.00,,,0.00,Wunderground v.1.15,2013-08-29 20:42:00,
2013-08-29 15:47:00,93.9,75.3,29.95,NW,316,4.0,4.0,55,0.00,,,0.00,Wunderground v.1.15,2013-08-29 20:47:00,
2013-08-29 15:52:00,93.5,74.4,29.95,North,356,0.0,5.0,54,0.00,,,0.00,Wunderground v.1.15,2013-08-29 20:52:00,
2013-08-29 15:57:00,93.6,74.5,29.95,NW,314,0.0,5.0,54,0.00,,,0.00,Wunderground v.1.15,2013-08-29 20:57:00,
2013-08-29 16:02:00,93.2,73.5,29.95,WNW,300,3.0,5.0,53,0.00,,,0.00,Wunderground v.1.15,2013-08-29 21:02:00,
2013-08-29 16:07:00,92.8,74.8,29.95,WNW,284,3.0,6.0,56,0.00,,,0.00,Wunderground v.1.15,2013-08-29 21:07:00,
2013-08-29 16:12:00,92.3,75.4,29.95,WNW,297,5.0,7.0,58,0.00,,,0.00,Wunderground v.1.15,2013-08-29 21:12:00,
2013-08-29 16:17:00,92.1,75.2,29.95,WNW,297,3.0,7.0,58,0.00,,,0.00,Wunderground v.1.15,2013-08-29 21:17:00,
2013-08-29 16:22:00,91.8,74.9,29.95,NW,304,6.0,7.0,58,0.00,,,0.00,Wunderground v.1.15,2013-08-29 21:22:00,
2013-08-29 16:27:00,91.6,75.2,29.95,WNW,298,6.0,8.0,59,0.00,,,0.00,Wunderground v.1.15,2013-08-29 21:27:00,
2013-08-29 16:32:00,91.5,75.1,29.95,WNW,302,4.0,7.0,59,0.00,,,0.00,Wunderground v.1.15,2013-08-29 21:32:00,
2013-08-29 16:37:00,91.1,76.3,29.95,NW,321,2.0,8.0,62,0.00,,,0.00,Wunderground v.1.15,2013-08-29 21:37:00,
2013-08-29 16:42:00,90.8,76.0,29.95,NW,304,3.0,4.0,62,0.00,,,0.00,Wunderground v.1.15,2013-08-29 21:42:00,
2013-08-29 16:48:00,90.5,75.7,29.95,WNW,282,2.0,5.0,62,0.00,,,0.00,Wunderground v.1.15,2013-08-29 21:48:00,
2013-08-29 16:53:00,90.2,75.4,29.95,WNW,302,3.0,6.0,62,0.00,,,0.00,Wunderground v.1.15,2013-08-29 21:53:00,
2013-08-29 16:58:00,89.9,76.6,29.95,WNW,291,3.0,6.0,65,0.00,,,0.00,Wunderground v.1.15,2013-08-29 21:58:00,
2013-08-29 17:03:00,89.5,75.7,29.95,WNW,283,2.0,4.0,64,0.00,,,0.00,Wunderground v.1.15,2013-08-29 22:03:00,
2013-08-29 17:08:00,89.4,76.5,29.94,WNW,300,3.0,4.0,66,0.00,,,0.00,Wunderground v.1.15,2013-08-29 22:08:00,
2013-08-29 17:13:00,89.0,75.7,29.94,WNW,295,3.0,4.0,65,0.00,,,0.00,Wunderground v.1.15,2013-08-29 22:13:00,
2013-08-29 17:18:00,88.8,76.0,29.94,WNW,283,3.0,4.0,66,0.00,,,0.00,Wunderground v.1.15,2013-08-29 22:18:00,
2013-08-29 17:23:00,88.6,76.2,29.94,WNW,298,2.0,3.0,67,0.00,,,0.00,Wunderground v.1.15,2013-08-29 22:23:00,
2013-08-29 17:28:00,88.8,76.4,29.94,NW,309,2.0,3.0,67,0.00,,,0.00,Wunderground v.1.15,2013-08-29 22:28:00,
2013-08-29 17:33:00,88.9,76.5,29.94,WNW,283,2.0,3.0,67,0.00,,,0.00,Wunderground v.1.15,2013-08-29 22:33:00,
2013-08-29 17:38:00,88.9,77.0,29.94,WNW,303,2.0,3.0,68,0.00,,,0.00,Wunderground v.1.15,2013-08-29 22:38:00,
2013-08-29 17:43:00,88.9,77.4,29.94,WNW,290,2.0,3.0,69,0.00,,,0.00,Wunderground v.1.15,2013-08-29 22:43:00,
2013-08-29 17:48:00,88.9,77.4,29.94,WNW,293,2.0,3.0,69,0.00,,,0.00,Wunderground v.1.15,2013-08-29 22:48:00,
2013-08-29 17:53:00,89.1,77.6,29.94,NW,311,3.0,3.0,69,0.00,,,0.00,Wunderground v.1.15,2013-08-29 22:53:00,
2013-08-29 17:58:00,89.2,77.7,29.94,WNW,293,2.0,3.0,69,0.00,,,0.00,Wunderground v.1.15,2013-08-29 22:58:00,
2013-08-29 18:03:00,89.5,78.0,29.94,WNW,300,2.0,3.0,69,0.00,,,0.00,Wunderground v.1.15,2013-08-29 23:03:00,
2013-08-29 18:08:00,89.7,77.3,29.94,WNW,301,1.0,4.0,67,0.00,,,0.00,Wunderground v.1.15,2013-08-29 23:08:00,
2013-08-29 18:13:00,89.9,77.9,29.94,NW,311,1.0,3.0,68,0.00,,,0.00,Wunderground v.1.15,2013-08-29 23:13:00,
2013-08-29 18:18:00,90.1,78.1,29.94,NW,311,1.0,3.0,68,0.00,,,0.00,Wunderground v.1.15,2013-08-29 23:18:00,
2013-08-29 18:23:00,90.1,77.7,29.94,WNW,288,1.0,3.0,67,0.00,,,0.00,Wunderground v.1.15,2013-08-29 23:23:00,
2013-08-29 18:28:00,90.1,78.1,29.94,WNW,300,1.0,3.0,68,0.00,,,0.00,Wunderground v.1.15,2013-08-29 23:28:00,
2013-08-29 18:34:00,90.1,77.7,29.94,NW,312,2.0,3.0,67,0.00,,,0.00,Wunderground v.1.15,2013-08-29 23:34:00,
2013-08-29 18:39:00,90.1,78.1,29.94,NW,312,0.0,3.0,68,0.00,,,0.00,Wunderground v.1.15,2013-08-29 23:39:00,
2013-08-29 18:44:00,90.2,78.6,29.94,WNW,290,1.0,1.0,69,0.00,,,0.00,Wunderground v.1.15,2013-08-29 23:44:00,
2013-08-29 18:49:00,90.2,78.6,29.94,WNW,289,0.0,1.0,69,0.00,,,0.00,Wunderground v.1.15,2013-08-29 23:49:00,
2013-08-29 18:54:00,89.9,78.4,29.94,West,264,0.0,1.0,69,0.00,,,0.00,Wunderground v.1.15,2013-08-29 23:54:00,
2013-08-29 18:59:00,89.4,78.8,29.94,West,261,0.0,1.0,71,0.00,,,0.00,Wunderground v.1.15,2013-08-29 23:59:00,
2013-08-29 19:04:00,89.0,78.4,29.94,West,262,0.0,0.0,71,0.00,,,0.00,Wunderground v.1.15,2013-08-30 00:04:00,
2013-08-29 19:09:00,88.4,78.2,29.94,West,261,0.0,1.0,72,0.00,,,0.00,Wunderground v.1.15,2013-08-30 00:09:00,
2013-08-29 19:14:00,87.9,78.2,29.94,West,261,0.0,1.0,73,0.00,,,0.00,Wunderground v.1.15,2013-08-30 00:14:00,
2013-08-29 19:19:00,87.5,78.6,29.95,West,261,0.0,1.0,75,0.00,,,0.00,Wunderground v.1.15,2013-08-30 00:19:00,
2013-08-29 19:24:00,86.9,78.4,29.95,West,262,0.0,0.0,76,0.00,,,0.00,Wunderground v.1.15,2013-08-30 00:24:00,
2013-08-29 19:29:00,86.1,78.4,29.95,West,261,0.0,0.0,78,0.00,,,0.00,Wunderground v.1.15,2013-08-30 00:29:00,
2013-08-29 19:34:00,85.2,77.9,29.95,West,261,0.0,1.0,79,0.00,,,0.00,Wunderground v.1.15,2013-08-30 00:34:00,
2013-08-29 19:39:00,84.3,77.8,29.95,West,261,0.0,1.0,81,0.00,,,0.00,Wunderground v.1.15,2013-08-30 00:39:00,
2013-08-29 19:44:00,83.6,77.9,29.95,West,262,0.0,1.0,83,0.00,,,0.00,Wunderground v.1.15,2013-08-30 00:44:00,
2013-08-29 19:49:00,83.1,77.4,29.95,West,261,0.0,1.0,83,0.00,,,0.00,Wunderground v.1.15,2013-08-30 00:49:00,
2013-08-29 19:54:00,82.7,77.4,29.95,West,261,0.0,0.0,84,0.00,,,0.00,Wunderground v.1.15,2013-08-30 00:54:00,
2013-08-29 19:59:00,82.3,77.3,29.95,West,262,0.0,0.0,85,0.00,,,0.00,Wunderground v.1.15,2013-08-30 00:59:00,
2013-08-29 20:04:00,81.9,77.3,29.95,West,261,0.0,0.0,86,0.00,,,0.00,Wunderground v.1.15,2013-08-30 01:04:00,
2013-08-29 20:09:00,81.5,77.3,29.95,West,262,0.0,0.0,87,0.00,,,0.00,Wunderground v.1.15,2013-08-30 01:09:00,
2013-08-29 20:14:00,81.1,77.5,29.95,West,262,0.0,0.0,89,0.00,,,0.00,Wunderground v.1.15,2013-08-30 01:14:00,
2013-08-29 20:19:00,80.8,77.3,29.95,West,262,0.0,0.0,89,0.00,,,0.00,Wunderground v.1.15,2013-08-30 01:19:00,
2013-08-29 20:24:00,80.5,77.0,29.95,West,262,0.0,0.0,89,0.00,,,0.00,Wunderground v.1.15,2013-08-30 01:24:00,
2013-08-29 20:29:00,80.3,76.8,29.95,West,262,0.0,0.0,89,0.00,,,0.00,Wunderground v.1.15,2013-08-30 01:29:00,
2013-08-29 20:35:00,80.4,76.5,29.95,West,262,0.0,0.0,88,0.00,,,0.00,Wunderground v.1.15,2013-08-30 01:35:00,
2013-08-29 20:40:00,80.3,76.4,29.95,West,262,0.0,0.0,88,0.00,,,0.00,Wunderground v.1.15,2013-08-30 01:40:00,
2013-08-29 20:45:00,80.1,76.2,29.96,West,262,0.0,0.0,88,0.00,,,0.00,Wunderground v.1.15,2013-08-30 01:45:00,
2013-08-29 20:50:00,79.9,76.4,29.96,West,262,0.0,0.0,89,0.00,,,0.00,Wunderground v.1.15,2013-08-30 01:50:00,
2013-08-29 20:55:00,79.6,76.1,29.96,West,262,0.0,0.0,89,0.00,,,0.00,Wunderground v.1.15,2013-08-30 01:55:00,
2013-08-29 21:00:00,79.3,76.1,29.96,West,262,0.0,0.0,90,0.00,,,0.00,Wunderground v.1.15,2013-08-30 02:00:00,
2013-08-29 21:05:00,79.2,76.0,29.96,West,262,0.0,0.0,90,0.00,,,0.00,Wunderground v.1.15,2013-08-30 02:05:00,
2013-08-29 21:10:00,79.2,76.0,29.96,West,262,0.0,0.0,90,0.00,,,0.00,Wunderground v.1.15,2013-08-30 02:10:00,
2013-08-29 21:15:00,79.1,75.9,29.96,West,262,0.0,0.0,90,0.00,,,0.00,Wunderground v.1.15,2013-08-30 02:15:00,
2013-08-29 21:20:00,78.8,75.6,29.96,West,262,0.0,0.0,90,0.00,,,0.00,Wunderground v.1.15,2013-08-30 02:20:00,
2013-08-29 21:25:00,78.7,75.5,29.96,West,262,0.0,0.0,90,0.00,,,0.00,Wunderground v.1.15,2013-08-30 02:25:00,
2013-08-29 21:30:00,78.6,75.8,29.96,West,262,0.0,0.0,91,0.00,,,0.00,Wunderground v.1.15,2013-08-30 02:30:00,
2013-08-29 21:35:00,78.4,75.6,29.96,West,262,0.0,0.0,91,0.00,,,0.00,Wunderground v.1.15,2013-08-30 02:35:00,
2013-08-29 21:40:00,78.2,75.4,29.96,West,262,0.0,0.0,91,0.00,,,0.00,Wunderground v.1.15,2013-08-30 02:40:00,
2013-08-29 21:45:00,78.1,75.6,29.96,West,262,0.0,0.0,92,0.00,,,0.00,Wunderground v.1.15,2013-08-30 02:45:00,
2013-08-29 21:50:00,78.0,75.5,29.96,West,262,0.0,0.0,92,0.00,,,0.00,Wunderground v.1.15,2013-08-30 02:50:00,
2013-08-29 21:55:00,78.0,75.8,29.95,West,262,0.0,0.0,93,0.00,,,0.00,Wunderground v.1.15,2013-08-30 02:55:00,
2013-08-29 22:00:00,77.9,75.7,29.95,West,262,0.0,0.0,93,0.00,,,0.00,Wunderground v.1.15,2013-08-30 03:00:00,
2013-08-29 22:05:00,77.8,75.6,29.95,West,262,0.0,0.0,93,0.00,,,0.00,Wunderground v.1.15,2013-08-30 03:05:00,
2013-08-29 22:10:00,77.7,75.5,29.95,West,262,0.0,0.0,93,0.00,,,0.00,Wunderground v.1.15,2013-08-30 03:10:00,
2013-08-29 22:15:00,77.7,75.8,29.95,West,262,0.0,0.0,94,0.00,,,0.00,Wunderground v.1.15,2013-08-30 03:15:00,
2013-08-29 22:20:00,77.7,75.8,29.95,West,262,0.0,0.0,94,0.00,,,0.00,Wunderground v.1.15,2013-08-30 03:20:00,
2013-08-29 22:25:00,77.7,75.8,29.95,WSW,257,0.0,0.0,94,0.00,,,0.00,Wunderground v.1.15,2013-08-30 03:25:00,
2013-08-29 22:30:00,78.1,75.9,29.95,WSW,257,0.0,0.0,93,0.00,,,0.00,Wunderground v.1.15,2013-08-30 03:30:00,
2013-08-29 22:35:00,78.2,75.7,29.95,WSW,257,0.0,0.0,92,0.00,,,0.00,Wunderground v.1.15,2013-08-30 03:35:00,
2013-08-29 22:40:00,78.0,75.5,29.95,WSW,257,0.0,0.0,92,0.00,,,0.00,Wunderground v.1.15,2013-08-30 03:40:00,
2013-08-29 22:45:00,77.8,75.6,29.95,WSW,257,0.0,0.0,93,0.00,,,0.00,Wunderground v.1.15,2013-08-30 03:45:00,
2013-08-29 22:50:00,77.6,75.4,29.95,WSW,257,0.0,0.0,93,0.00,,,0.00,Wunderground v.1.15,2013-08-30 03:50:00,
2013-08-29 22:55:00,77.6,75.4,29.95,WSW,257,0.0,0.0,93,0.00,,,0.00,Wunderground v.1.15,2013-08-30 03:55:00,
2013-08-29 23:00:00,77.9,75.7,29.95,WSW,256,0.0,0.0,93,0.00,,,0.00,Wunderground v.1.15,2013-08-30 04:00:00,
2013-08-29 23:01:00,77.9,75.4,29.95,WSW,256,0.0,0.0,92,0.00,,,0.00,Wunderground v.1.15,2013-08-30 04:01:00,
2013-08-29 23:06:00,78.0,75.5,29.95,WSW,256,0.0,0.0,92,0.00,,,0.00,Wunderground v.1.15,2013-08-30 04:06:00,
2013-08-29 23:12:00,78.0,75.5,29.95,WSW,256,0.0,0.0,92,0.00,,,0.00,Wunderground v.1.15,2013-08-30 04:12:00,
2013-08-29 23:17:00,78.2,75.4,29.95,WSW,256,0.0,0.0,91,0.00,,,0.00,Wunderground v.1.15,2013-08-30 04:17:00,
2013-08-29 23:22:00,78.0,75.2,29.95,WSW,256,0.0,0.0,91,0.00,,,0.00,Wunderground v.1.15,2013-08-30 04:22:00,
2013-08-29 23:26:00,77.7,75.2,29.95,WSW,256,0.0,0.0,92,0.00,,,0.00,Wunderground v.1.15,2013-08-30 04:26:00,
2013-08-29 23:32:00,77.8,75.3,29.95,WSW,256,0.0,0.0,92,0.00,,,0.00,Wunderground v.1.15,2013-08-30 04:32:00,
2013-08-29 23:37:00,77.6,75.1,29.95,WSW,256,0.0,0.0,92,0.00,,,0.00,Wunderground v.1.15,2013-08-30 04:37:00,
2013-08-29 23:42:00,77.4,74.9,29.95,WSW,256,0.0,0.0,92,0.00,,,0.00,Wunderground v.1.15,2013-08-30 04:42:00,
2013-08-29 23:47:00,77.2,75.0,29.95,WSW,256,0.0,0.0,93,0.00,,,0.00,Wunderground v.1.15,2013-08-30 04:47:00,
2013-08-29 23:52:00,77.0,74.8,29.95,WSW,256,0.0,0.0,93,0.00,,,0.00,Wunderground v.1.15,2013-08-30 04:52:00,
2013-08-29 23:57:00,76.8,74.6,29.95,WSW,256,0.0,0.0,93,0.00,,,0.00,Wunderground v.1.15,2013-08-30 04:57:00,